TimeEST,TemperatureF,Dew PointF,Humidity,Sea Level PressureIn,VisibilityMPH,Wind Direction,Wind SpeedMPH,Gust SpeedMPH,PrecipitationIn,Events,Conditions,WindDirDegrees,DateUTC
12:00 AM,58,56,91,30.29,,SSW,3.5,,,,,200,2013-05-31 14:00:00
12:00 AM,57.2,55.4,94,30.27,6.2,SSW,3.5,-,N/A,,Scattered Clouds,200,2013-05-31 14:00:00
12:30 AM,57.2,55.4,94,30.27,6.2,SSW,4.6,-,N/A,,Scattered Clouds,210,2013-05-31 14:30:00
1:00 AM,57.2,55.4,94,30.27,6.2,Calm,Calm,-,N/A,,Unknown,0,2013-05-31 15:00:00
1:30 AM,55.4,55.4,100,30.24,6.2,SSW,3.5,-,N/A,,Unknown,210,2013-05-31 15:30:00
2:00 AM,55.4,53.6,94,30.21,6.2,South,3.5,-,N/A,,Unknown,190,2013-05-31 16:00:00
2:30 AM,55.4,53.6,94,30.21,6.2,SW,3.5,-,N/A,,Unknown,230,2013-05-31 16:30:00
2:42 AM,53.6,51.8,94,30.21,3.7,South,4.6,-,N/A,,Unknown,190,2013-05-31 16:42:00
2:58 AM,55.4,53.6,94,30.21,6.2,SSW,3.5,-,N/A,,Unknown,200,2013-05-31 16:58:00
3:00 AM,55,54,98,30.23,,South,3.5,,,,,190,2013-05-31 17:00:00
3:00 AM,55.4,55.4,100,30.21,6.2,South,3.5,-,N/A,,Unknown,190,2013-05-31 17:00:00
3:30 AM,55.4,53.6,94,30.21,6.2,SW,3.5,-,N/A,,Scattered Clouds,230,2013-05-31 17:30:00
4:00 AM,55.4,53.6,94,30.24,6.2,South,4.6,-,N/A,,Scattered Clouds,180,2013-05-31 18:00:00
4:30 AM,53.6,51.8,94,30.24,6.2,SSW,5.8,-,N/A,,Unknown,200,2013-05-31 18:30:00
5:00 AM,55.4,53.6,94,30.21,6.2,South,4.6,-,N/A,,Unknown,170,2013-05-31 19:00:00
5:30 AM,53.6,51.8,94,30.21,6.2,South,2.3,-,N/A,,Unknown,170,2013-05-31 19:30:00
6:00 AM,53,52,94,30.23,,South,4.6,,,,,170,2013-05-31 20:00:00
6:00 AM,53.6,51.8,94,30.21,6.2,South,4.6,-,N/A,,Unknown,170,2013-05-31 20:00:00
6:30 AM,55.4,53.6,94,30.21,6.2,South,5.8,-,N/A,,Unknown,170,2013-05-31 20:30:00
7:00 AM,55.4,55.4,100,30.21,6.2,SSE,6.9,-,N/A,,Unknown,160,2013-05-31 21:00:00
7:30 AM,57.2,57.2,100,30.21,6.2,South,4.6,-,N/A,,Unknown,170,2013-05-31 21:30:00
8:00 AM,60.8,57.2,88,30.24,6.2,SSE,4.6,-,N/A,,Unknown,150,2013-05-31 22:00:00
8:30 AM,62.6,59.0,88,30.24,6.2,South,5.8,-,N/A,,Unknown,170,2013-05-31 22:30:00
9:00 AM,66,57,66,30.25,,South,5.8,,,,,170,2013-05-31 23:00:00
9:00 AM,66.2,57.2,73,30.24,6.2,South,5.8,-,N/A,,Unknown,170,2013-05-31 23:00:00
9:30 AM,68.0,57.2,68,30.24,6.2,South,9.2,-,N/A,,Unknown,170,2013-05-31 23:30:00
10:00 AM,68.0,59.0,73,30.24,6.2,South,9.2,-,N/A,,Unknown,170,2013-06-01 00:00:00
10:30 AM,68.0,57.2,68,30.21,6.2,South,8.1,-,N/A,,Unknown,180,2013-06-01 00:30:00
11:00 AM,69.8,59.0,68,30.21,6.2,South,8.1,-,N/A,,Unknown,170,2013-06-01 01:00:00
11:30 AM,71.6,57.2,60,30.18,6.2,SSE,5.8,-,N/A,,Unknown,160,2013-06-01 01:30:00
12:00 PM,72,56,47,30.17,,NE,4.6,,,,,50,2013-06-01 02:00:00
12:00 PM,71.6,55.4,57,30.15,6.2,NE,4.6,-,N/A,,Unknown,50,2013-06-01 02:00:00
12:30 PM,71.6,55.4,57,30.15,6.2,ENE,3.5,-,N/A,,Unknown,70,2013-06-01 02:30:00
1:00 PM,71.6,55.4,57,30.12,6.2,NE,5.8,-,N/A,,Unknown,50,2013-06-01 03:00:00
1:30 PM,71.6,55.4,57,30.12,6.2,NE,4.6,-,N/A,,Unknown,40,2013-06-01 03:30:00
2:00 PM,71.6,55.4,57,30.12,6.2,NNE,4.6,-,N/A,,Unknown,30,2013-06-01 04:00:00
2:30 PM,69.8,57.2,64,30.09,6.2,NE,3.5,-,N/A,,Scattered Clouds,40,2013-06-01 04:30:00
3:00 PM,70,56,52,30.11,,North,3.5,,,,,10,2013-06-01 05:00:00
3:00 PM,69.8,55.4,60,30.09,6.2,North,3.5,-,N/A,,Unknown,10,2013-06-01 05:00:00
3:30 PM,69.8,57.2,64,30.09,6.2,NNE,4.6,-,N/A,,Unknown,20,2013-06-01 05:30:00
4:00 PM,68.0,57.2,68,30.06,6.2,North,4.6,-,N/A,,Unknown,10,2013-06-01 06:00:00
4:30 PM,66.2,59.0,78,30.06,6.2,NNW,3.5,-,N/A,,Unknown,340,2013-06-01 06:30:00
5:00 PM,64.4,59.0,83,30.06,6.2,Calm,Calm,-,N/A,,Unknown,0,2013-06-01 07:00:00
5:30 PM,64.4,59.0,83,30.06,6.2,West,4.6,-,N/A,,Unknown,260,2013-06-01 07:30:00
6:00 PM,63,59,84,30.09,,SW,5.8,,,,,230,2013-06-01 08:00:00
6:00 PM,62.6,59.0,88,30.06,6.2,SW,5.8,-,N/A,,Unknown,230,2013-06-01 08:00:00
6:30 PM,62.6,59.0,88,30.09,6.2,WSW,6.9,-,N/A,,Mostly Cloudy,240,2013-06-01 08:30:00
7:00 PM,62.6,59.0,88,30.09,6.2,WSW,4.6,-,N/A,,Scattered Clouds,240,2013-06-01 09:00:00
7:30 PM,60.8,59.0,94,30.09,6.2,SW,2.3,-,N/A,,Unknown,230,2013-06-01 09:30:00
8:00 PM,60.8,57.2,88,30.09,6.2,West,3.5,-,N/A,,Unknown,260,2013-06-01 10:00:00
8:30 PM,60.8,59.0,94,30.09,6.2,SW,5.8,-,N/A,,Unknown,230,2013-06-01 10:30:00
9:00 PM,60,58,90,30.11,,SSW,3.5,,,,,200,2013-06-01 11:00:00
9:00 PM,60.8,57.2,88,30.09,6.2,SSW,3.5,-,N/A,,Unknown,200,2013-06-01 11:00:00
9:30 PM,59.0,55.4,88,30.09,6.2,SSW,1.2,-,N/A,,Unknown,200,2013-06-01 11:30:00
10:00 PM,59.0,57.2,94,30.06,6.2,SW,1.2,-,N/A,,Unknown,230,2013-06-01 12:00:00
10:30 PM,59.0,57.2,94,30.06,6.2,WSW,3.5,-,N/A,,Unknown,240,2013-06-01 12:30:00
11:00 PM,59.0,57.2,94,30.06,6.2,Calm,Calm,-,N/A,,Unknown,0,2013-06-01 13:00:00
11:30 PM,59.0,57.2,94,30.06,6.2,WSW,5.8,-,N/A,,Scattered Clouds,250,2013-06-01 13:30:00